Juneau, AK

6:07 PM AKDT on March 26, 2017 (GMT -0800)
Juneau International

Weather History for PAJN - September, 2012

Change the Weather History Date:

Monday, September 24, 2012

  Actual Average Record
Temperature  
Mean Temperature 50 °F 48 °F  
Max Temperature 52 °F 54 °F 67 °F (1995)
Min Temperature 47 °F 43 °F 23 °F (1972)
Degree Days  
Heating Degree Days 15 17  
Month to date heating degree days 353 344  
Since 1 July heating degree days 976 879  
Cooling Degree Days 0 0  
Month to date cooling degree days 0 0  
Year to date cooling degree days 1 2  
Moisture  
Dew Point 47 °F    
Average Humidity 92    
Maximum Humidity 100    
Minimum Humidity 83    
Precipitation  
Precipitation 0.13 in 0.31 in 2.73 in (2006)
Month to date precipitation 8.89 6.81  
Year to date precipitation 48.30 39.98  
Sea Level Pressure  
Sea Level Pressure 30.17 in    
Wind  
Wind Speed 6 mph (East)    
Max Wind Speed 15 mph    
Max Gust Speed 18 mph    
Visibility 10 miles    
Events Rain    
T = Trace of Precipitation, MM = Missing Value Source: NWS Daily Summary

Daily Weather History Graph

Daily Weather History Graph

Search for Another Location

Airport or City:

Trip Planner

Search our weather history database for the weather conditions in past years. The results will help you decide how hot, cold, wet, or windy it might be!

Date:

Astronomy

Sep. 24, 2012 Rise Set
Actual Time 6:48 AM AKDT 6:50 PM AKDT
Civil Twilight 6:09 AM AKDT 7:29 PM AKDT
Nautical Twilight 5:22 AM AKDT 8:16 PM AKDT
Astronomical Twilight 4:31 AM AKDT 9:06 PM AKDT
Moon 4:37 PM AKDT (9/24) 12:07 AM AKDT (9/24)
Length of Visible Light 13h 20m
Length of Day
12h 01m
Waxing Gibbous, 72% of the Moon is Illuminated
Sep 24
Waxing Gibbous
Sep 29
Full
Oct 7
Last Quarter
Oct 15
New
Oct 21
First Quarter

Hourly Weather History & Observations

Time (AKDT) Temp. Dew Point Humidity Pressure Visibility Wind Dir Wind Speed Gust Speed Precip Events Conditions
12:53 AM 48.0 °F 48.0 °F 100% 30.08 in 10.0 mi ENE 4.6 mph - N/A   Mostly Cloudy
1:53 AM 48.0 °F 46.0 °F 93% 30.09 in 10.0 mi NE 3.5 mph - N/A   Mostly Cloudy
2:53 AM 48.0 °F 46.9 °F 96% 30.10 in 10.0 mi East 9.2 mph - N/A   Overcast
3:53 AM 48.0 °F 48.0 °F 100% 30.11 in 10.0 mi SE 4.6 mph - 0.00 in Rain Light Rain
4:53 AM 48.0 °F 46.9 °F 96% 30.12 in 8.0 mi WSW 4.6 mph - 0.08 in Rain Light Rain
5:53 AM 48.0 °F 46.9 °F 96% 30.13 in 10.0 mi Calm Calm - 0.03 in   Overcast
6:53 AM 48.0 °F 46.9 °F 96% 30.13 in 10.0 mi WSW 3.5 mph - N/A   Overcast
7:53 AM 48.0 °F 46.0 °F 93% 30.14 in 10.0 mi Calm Calm - 0.00 in   Overcast
8:53 AM 48.9 °F 46.9 °F 93% 30.15 in 10.0 mi East 3.5 mph - N/A   Overcast
9:53 AM 50.0 °F 48.9 °F 96% 30.17 in 10.0 mi Calm Calm - N/A   Overcast
10:53 AM 52.0 °F 48.9 °F 89% 30.17 in 10.0 mi East 12.7 mph - N/A   Overcast
11:53 AM 52.0 °F 46.9 °F 83% 30.19 in 10.0 mi ESE 12.7 mph - 0.00 in Rain Light Rain
12:53 PM 52.0 °F 46.0 °F 80% 30.19 in 10.0 mi SE 6.9 mph - 0.00 in Rain Light Rain
1:53 PM 51.1 °F 48.0 °F 89% 30.20 in 10.0 mi Variable 4.6 mph - 0.00 in   Overcast
2:53 PM 51.1 °F 46.9 °F 86% 30.21 in 10.0 mi East 6.9 mph - 0.00 in Rain Light Rain
3:53 PM 51.1 °F 46.9 °F 86% 30.22 in 10.0 mi East 8.1 mph - 0.00 in Rain Light Rain
4:53 PM 51.1 °F 48.0 °F 89% 30.22 in 10.0 mi ENE 8.1 mph - 0.01 in Rain Light Rain
5:53 PM 50.0 °F 46.9 °F 89% 30.21 in 10.0 mi East 8.1 mph - 0.00 in   Overcast
6:53 PM 50.0 °F 46.9 °F 89% 30.21 in 10.0 mi East 8.1 mph - 0.00 in   Overcast
7:53 PM 48.9 °F 46.9 °F 93% 30.22 in 10.0 mi East 8.1 mph - 0.00 in   Overcast
8:53 PM 48.9 °F 46.9 °F 93% 30.22 in 10.0 mi ENE 5.8 mph - N/A   Overcast
9:53 PM 48.9 °F 46.0 °F 90% 30.22 in 10.0 mi East 8.1 mph - N/A   Overcast
10:53 PM 48.9 °F 46.9 °F 93% 30.22 in 10.0 mi East 6.9 mph - 0.01 in Rain Light Rain
11:53 PM 48.9 °F 46.9 °F 93% 30.22 in 10.0 mi ENE 5.8 mph - 0.00 in Rain Light Rain